FW5399 Weather Reports


Display with metric or nautical units.
time (UTC)temp
F
wind
direction
speed
MPH
gust
MPH
rain 1hr
in
rain 24hr
in
rain mn
in
humidity
%
barometer
mb
20260831102916 55 222 1.0 8.0 0.00 0.00 0.00 72 1006.4
20260831102424 55 21 1.0 8.0 0.00 0.00 0.00 72 1006.5
20260831101915 56 328 0.0 3.0 0.00 0.00 0.00 72 1006.7
20260831101409 56 255 1.0 8.0 0.00 0.00 0.00 72 1006.7
20260831100852 55 311 1.0 8.0 0.00 0.00 0.00 73 1006.8
20260831100344 55 279 0.0 4.0 0.00 0.00 0.00 74 1006.7
20260831100026 55 256 1.0 13.0 0.00 0.00 0.00 74 1006.5
20260831094824 53 225 0.0 2.0 0.00 0.00 0.00 78 1006.2
20260831094318 54 232 0.0 1.0 0.00 0.00 0.00 79 1005.8
20260831094212 54 341 0.0 2.0 0.00 0.00 0.00 78 1005.8
20260831093730 54 339 0.0 2.0 0.00 0.00 0.00 77 1005.5
20260831092813 54 262 1.0 6.0 0.00 0.00 0.00 76 1005.6
20260831092254 54 262 1.0 6.0 0.00 0.00 0.00 76 1005.6
20260831091800 54 229 0.0 1.0 0.00 0.00 0.00 79 1005.7
20260831091254 54 1 0.0 0.0 0.00 0.00 0.00 78 1005.6
20260831090735 54 1 0.0 1.0 0.00 0.00 0.00 77 1005.7
20260831090236 55 1 0.0 2.0 0.00 0.00 0.00 76 1005.6
20260831085735 55 0 0.0 5.0 0.00 0.00 0.00 76 1005.6
20260831085629 55 62 0.0 5.0 0.00 0.00 0.00 75 1005.5
20260831084736 55 3 0.0 1.0 0.00 0.00 0.00 76 1005.6
20260831084234 55 355 0.0 3.0 0.00 0.00 0.00 76 1005.5
20260831083737 54 257 0.0 3.0 0.00 0.00 0.00 75 1005.6
20260831083236 54 291 0.0 2.0 0.00 0.00 0.00 77 1005.5
20260831082736 54 343 0.0 1.0 0.00 0.00 0.00 77 1005.1
20260831082233 55 46 0.0 1.0 0.00 0.00 0.00 76 1005.1
20260831081732 55 46 0.0 2.0 0.00 0.00 0.00 75 1004.9
20260831081232 55 58 0.0 2.0 0.00 0.00 0.00 75 1005.0
20260831080730 56 287 0.0 1.0 0.00 0.00 0.00 74 1004.8
20260831080232 56 287 0.0 1.0 0.00 0.00 0.00 72 1004.8
20260831075730 56 270 0.0 3.0 0.00 0.00 0.00 73 1004.9
20260831075229 56 270 0.0 5.0 0.00 0.00 0.00 72 1005.1
20260831074727 56 204 0.0 5.0 0.00 0.00 0.00 71 1005.1
20260831074625 57 240 0.0 2.0 0.00 0.00 0.00 72 1005.1
20260831073727 57 279 1.0 7.0 0.00 0.00 0.00 71 1005.2
20260831073227 57 327 1.0 7.0 0.00 0.00 0.00 71 1005.2
20260831073122 57 218 1.0 5.0 0.00 0.00 0.00 70 1005.3
20260831072629 57 296 1.0 14.0 0.00 0.00 0.00 71 1005.2
20260831071726 57 336 1.0 14.0 0.00 0.00 0.00 70 1004.9
20260831071226 57 26 1.0 7.0 0.00 0.00 0.00 71 1005.2
20260831070726 57 271 1.0 5.0 0.00 0.00 0.00 71 1004.8
20260831070226 57 299 1.0 7.0 0.00 0.00 0.00 70 1004.7
20260831065919 58 350 2.0 9.0 0.00 0.00 0.00 70 1004.5
20260831065819 57 322 2.0 8.0 0.00 0.00 0.00 69 1004.6
20260831064227 58 283 2.0 11.0 0.00 0.00 0.00 70 1004.5
20260831063729 58 314 2.0 10.0 0.00 0.00 0.00 70 1004.5
20260831063229 57 329 1.0 8.0 0.00 0.00 0.00 71 1004.4
20260831062726 57 284 0.0 7.0 0.00 0.00 0.00 73 1004.1
20260831062224 58 286 1.0 4.0 0.00 0.00 0.00 73 1004.0
20260831061727 58 291 1.0 10.0 0.00 0.00 0.00 73 1004.1
20260831061357 58 318 1.0 10.0 0.00 0.00 0.00 72 1004.2
20260831060402 58 1 1.0 9.0 0.00 0.00 0.00 71 1004.1
20260831055154 58 272 1.0 8.0 0.00 0.00 0.00 72 1004.4
20260831054648 59 285 1.0 8.0 0.00 0.00 0.00 71 1004.1
20260831054148 59 357 1.0 8.0 0.00 0.00 0.00 72 1004.1
20260831053636 59 327 1.0 9.0 0.00 0.00 0.00 71 1004.1
20260831053132 59 248 1.0 9.0 0.00 0.00 0.00 72 1003.9
20260831053029 59 241 1.0 6.0 0.00 0.00 0.00 73 1004.0
20260831052118 59 296 1.0 6.0 0.00 0.00 0.00 74 1004.0
20260831051612 59 344 1.0 6.0 0.00 0.00 0.00 75 1004.0
20260831051107 59 312 1.0 4.0 0.00 0.00 0.00 76 1004.0
20260831050608 59 342 1.0 5.0 0.00 0.00 0.00 74 1004.0
20260831045548 60 2 1.0 11.0 0.00 0.00 0.00 73 1004.0
20260831045227 60 291 1.0 7.0 0.00 0.00 0.00 73 1004.2
20260831044032 60 260 1.0 8.0 0.00 0.00 0.00 72 1004.0
20260831043525 60 336 1.0 6.0 0.00 0.00 0.00 74 1004.0
20260831043019 60 303 0.0 4.0 0.00 0.00 0.00 74 1004.0
20260831042513 60 296 1.0 4.0 0.00 0.00 0.00 74 1003.9
20260831042007 60 254 1.0 6.0 0.00 0.00 0.00 74 1003.9
20260831041501 60 329 1.0 6.0 0.00 0.00 0.00 75 1003.9
20260831040954 61 240 1.0 5.0 0.00 0.00 0.00 76 1003.8
20260831040448 62 271 1.0 5.0 0.00 0.00 0.00 77 1003.9
20260831035948 62 277 1.0 5.0 0.00 0.00 0.00 76 1003.9
20260831035848 62 0 1.0 5.0 0.00 0.00 0.00 74 1004.1
20260831034949 62 335 1.0 5.0 0.00 0.00 0.00 70 1004.2
20260831034449 63 336 1.0 8.0 0.00 0.00 0.00 69 1004.0
20260831033950 63 303 2.0 10.0 0.00 0.00 0.00 66 1003.8
20260831033445 64 345 1.0 10.0 0.00 0.00 0.00 65 1003.7
20260831033343 64 7 2.0 15.0 0.00 0.00 0.00 64 1003.9
20260831032445 64 347 3.0 15.0 0.00 0.00 0.00 65 1003.9
20260831031945 64 9 3.0 9.0 0.00 0.00 0.00 63 1003.7
20260831031449 64 339 2.0 9.0 0.00 0.00 0.00 65 1003.8
20260831031002 65 263 2.0 11.0 0.00 0.00 0.00 64 1003.9
20260831030446 65 352 2.0 11.0 0.00 0.00 0.00 64 1003.9
20260831025947 65 318 2.0 9.0 0.00 0.00 0.00 65 1003.8
20260831025446 66 169 2.0 9.0 0.00 0.00 0.00 61 1003.5
20260831024945 66 279 2.0 7.0 0.00 0.00 0.00 65 1003.6
20260831024445 66 19 2.0 7.0 0.00 0.00 0.00 62 1003.7
20260831023944 67 351 1.0 7.0 0.00 0.00 0.00 61 1003.8
20260831023438 66 322 1.0 6.0 0.00 0.00 0.00 63 1003.9
20260831022932 65 8 0.0 6.0 0.00 0.00 0.00 64 1004.0
20260831022426 65 300 1.0 6.0 0.00 0.00 0.00 66 1004.1
20260831022123 65 236 1.0 5.0 0.00 0.00 0.00 67 1004.1
20260831022016 64 261 1.0 6.0 0.00 0.00 0.00 65 1004.1
20260831020414 65 284 2.0 8.0 0.00 0.00 0.00 66 1004.2
20260831015915 65 347 2.0 8.0 0.00 0.00 0.00 66 1004.3
20260831015416 64 279 1.0 7.0 0.00 0.00 0.00 69 1004.5
20260831014913 64 304 1.0 7.0 0.00 0.00 0.00 67 1004.5
20260831014411 65 279 2.0 7.0 0.00 0.00 0.00 66 1004.6
20260831013911 65 331 3.0 11.0 0.00 0.00 0.00 66 1004.8
20260831013820 67 355 3.0 11.0 0.00 0.00 0.00 64 1004.8
20260831012910 67 35 2.0 10.0 0.00 0.00 0.00 63 1004.8
20260831012833 66 4 3.0 9.0 0.00 0.00 0.00 65 1004.5
20260831012312 66 32 3.0 11.0 0.00 0.00 0.00 62 1004.7
20260831011413 67 305 2.0 11.0 0.00 0.00 0.00 62 1004.9
20260831010905 66 153 0.0 6.0 0.00 0.00 0.00 63 1004.8
20260831010405 65 28 0.0 3.0 0.00 0.00 0.00 68 1004.9
20260831005907 64 269 0.0 3.0 0.00 0.00 0.00 66 1005.0
20260831005405 64 342 0.0 7.0 0.00 0.00 0.00 65 1005.0
20260831005301 64 321 1.0 7.0 0.00 0.00 0.00 66 1005.0
20260831004406 65 334 0.0 4.0 0.00 0.00 0.00 64 1005.1
20260831003905 65 4 0.0 4.0 0.00 0.00 0.00 65 1005.1
20260831003406 65 285 1.0 5.0 0.00 0.00 0.00 65 1005.1
20260831002906 64 305 1.0 5.0 0.00 0.00 0.00 65 1005.2
20260831002405 63 313 1.0 7.0 0.00 0.00 0.00 65 1005.4
20260831002325 64 290 1.0 7.0 0.00 0.00 0.00 63 1005.6
20260831001404 65 344 1.0 6.0 0.00 0.00 0.00 64 1005.5
20260831001302 65 285 2.0 9.0 0.00 0.00 0.00 64 1005.7
20260831000406 65 223 1.0 9.0 0.00 0.00 0.00 66 1005.8
20260830235909 64 231 2.0 8.0 0.00 0.00 0.00 69 1005.8
20260830235408 64 347 2.0 8.0 0.00 0.00 0.00 69 1005.8
20260830234905 62 61 2.0 8.0 0.00 0.00 0.00 72 1005.9
20260830234404 62 298 2.0 11.0 0.00 0.00 0.00 73 1005.9
20260830233902 62 23 3.0 11.0 0.00 0.00 0.00 72 1005.9
20260830233404 63 334 2.0 7.0 0.00 0.00 0.00 68 1006.0
20260830232858 63 351 2.0 7.0 0.00 0.00 0.00 68 1005.9
20260830232559 63 338 2.0 12.0 0.00 0.00 0.00 66 1005.8
20260830231342 63 339 2.0 12.0 0.00 0.00 0.00 64 1005.6
20260830231108 62 330 2.0 10.0 0.00 0.00 0.00 65 1005.9
20260830230942 63 288 2.0 12.0 0.00 0.00 0.00 65 1005.7
20260830225315 64 278 1.0 13.0 0.00 0.00 0.00 61 1005.9
20260830224811 64 319 1.0 13.0 0.00 0.00 0.00 63 1005.9
20260830224304 65 315 1.0 8.0 0.00 0.00 0.00 62 1005.8
20260830224202 65 23 2.0 8.0 0.00 0.00 0.00 62 1005.9
20260830223251 64 343 2.0 8.0 0.00 0.00 0.00 62 1005.8
20260830223153 64 300 1.0 8.0 0.00 0.00 0.00 61 1005.9
20260830222241 65 336 1.0 8.0 0.00 0.00 0.00 62 1006.0
20260830221733 64 263 1.0 4.0 0.00 0.00 0.00 61 1006.2
20260830221228 64 270 2.0 10.0 0.00 0.00 0.00 63 1006.4
20260830220721 64 341 1.0 10.0 0.00 0.00 0.00 63 1006.5
20260830220215 63 293 1.0 7.0 0.00 0.00 0.00 65 1006.5
20260830215711 62 327 1.0 7.0 0.00 0.00 0.00 63 1006.6
20260830215215 62 303 1.0 5.0 0.00 0.00 0.00 67 1006.5
20260830214657 62 328 0.0 5.0 0.00 0.00 0.00 65 1006.7
20260830214551 62 236 1.0 7.0 0.00 0.00 0.00 64 1006.7
20260830213646 62 312 1.0 7.0 0.00 0.00 0.00 66 1006.4
20260830213141 63 331 1.0 7.0 0.00 0.00 0.00 65 1006.5
20260830212638 62 331 1.0 7.0 0.00 0.00 0.00 65 1006.4
20260830212128 62 262 1.0 4.0 0.00 0.01 0.00 64 1006.4
20260830211622 62 307 1.0 6.0 0.00 0.01 0.00 65 1006.4
20260830211116 62 313 1.0 6.0 0.00 0.01 0.00 64 1006.5
20260830210612 62 202 0.0 2.0 0.00 0.01 0.00 68 1006.6
20260830210103 61 329 0.0 6.0 0.00 0.01 0.00 68 1006.6
20260830205558 60 319 0.0 6.0 0.00 0.01 0.00 69 1006.5
20260830205051 59 274 1.0 4.0 0.00 0.01 0.00 69 1006.6
20260830204545 58 270 0.0 4.0 0.00 0.01 0.00 72 1006.5
20260830204041 57 288 1.0 4.0 0.00 0.01 0.00 74 1006.5
20260830203534 56 322 1.0 7.0 0.00 0.01 0.00 74 1006.5
20260830203035 56 5 1.0 7.0 0.00 0.01 0.00 75 1006.6
20260830202935 56 267 1.0 5.0 0.00 0.01 0.00 75 1006.7
20260830202212 56 331 0.0 8.0 0.00 0.01 0.00 76 1006.6
20260830201031 56 293 0.0 3.0 0.00 0.01 0.00 76 1006.5
20260830200943 56 284 0.0 3.0 0.00 0.01 0.00 76 1006.4
20260830200412 56 291 0.0 5.0 0.00 0.01 0.00 75 1006.7
20260830195529 55 200 1.0 9.0 0.00 0.01 0.00 76 1006.5
20260830195425 56 10 1.0 9.0 0.00 0.01 0.00 74 1006.4
20260830194527 55 132 1.0 11.0 0.00 0.01 0.00 75 1006.5
20260830194435 55 326 1.0 11.0 0.00 0.01 0.00 73 1006.3
20260830193527 56 293 1.0 8.0 0.00 0.01 0.00 73 1006.2
20260830193025 56 304 1.0 7.0 0.00 0.01 0.00 73 1006.3
20260830192527 55 325 0.0 7.0 0.00 0.01 0.00 74 1006.1
20260830192500 55 9 1.0 11.0 0.00 0.01 0.00 75 1006.1
20260830191526 54 296 1.0 11.0 0.00 0.01 0.00 74 1006.2
20260830191023 54 336 1.0 8.0 0.00 0.01 0.00 74 1006.3
20260830190523 54 110 2.0 9.0 0.00 0.01 0.00 74 1006.3
20260830190022 54 324 1.0 9.0 0.00 0.01 0.00 75 1006.3
20260830185520 54 99 2.0 9.0 0.00 0.01 0.00 75 1006.2
20260830185019 54 341 1.0 9.0 0.00 0.01 0.00 75 1006.3
20260830184519 54 288 1.0 7.0 0.00 0.01 0.00 75 1006.3
20260830184215 54 327 1.0 7.0 0.00 0.01 0.00 75 1006.3
20260830183017 54 7 1.0 6.0 0.00 0.01 0.00 74 1006.2
20260830182523 55 40 1.0 10.0 0.00 0.01 0.00 74 1005.9
20260830182020 54 305 1.0 10.0 0.00 0.01 0.00 74 1005.8
20260830181518 54 251 1.0 9.0 0.00 0.01 0.00 74 1005.8
20260830181020 54 2 1.0 8.0 0.00 0.01 0.00 75 1005.6
20260830180523 54 298 1.0 8.0 0.00 0.01 0.00 75 1005.7
20260830180022 54 326 1.0 9.0 0.00 0.01 0.00 74 1005.6
20260830175518 54 343 2.0 9.0 0.00 0.01 0.00 73 1005.5
20260830175017 55 314 2.0 9.0 0.00 0.01 0.00 73 1005.3
20260830174530 55 357 2.0 10.0 0.00 0.01 0.00 73 1005.6
20260830174016 55 311 3.0 12.0 0.00 0.01 0.00 72 1005.4
20260830173516 55 4 3.0 12.0 0.00 0.01 0.00 72 1005.4
20260830173016 54 357 2.0 10.0 0.00 0.01 0.00 73 1005.2
20260830172516 54 33 1.0 8.0 0.00 0.01 0.00 74 1005.0
20260830172207 55 213 1.0 8.0 0.00 0.01 0.00 74 1004.9
20260830171007 55 50 1.0 6.0 0.00 0.01 0.00 74 1004.7
20260830170508 55 338 1.0 6.0 0.00 0.01 0.00 73 1004.6
20260830170421 55 281 1.0 6.0 0.00 0.01 0.00 73 1004.7
20260830165919 55 339 2.0 7.0 0.00 0.01 0.00 73 1004.8
20260830165006 55 42 2.0 10.0 0.00 0.01 0.00 73 1004.7
20260830164505 55 244 1.0 10.0 0.00 0.01 0.00 74 1004.9
20260830164003 55 267 0.0 7.0 0.00 0.01 0.00 77 1005.1
20260830163505 55 315 0.0 3.0 0.00 0.01 0.00 77 1004.9
20260830163004 55 263 1.0 7.0 0.00 0.01 0.00 75 1004.9
20260830162504 55 348 1.0 10.0 0.00 0.01 0.00 77 1004.8
20260830162005 55 256 1.0 10.0 0.00 0.01 0.00 76 1004.6
20260830161925 55 338 1.0 7.0 0.00 0.01 0.00 76 1004.7
20260830161019 56 10 1.0 9.0 0.00 0.01 0.00 76 1004.5
20260830160504 56 246 1.0 9.0 0.00 0.01 0.00 76 1004.5
20260830160000 55 262 0.0 3.0 0.00 0.01 0.00 76 1004.6
20260830155452 55 328 0.0 4.0 0.00 0.01 0.00 76 1004.4
20260830154947 55 19 1.0 7.0 0.00 0.01 0.00 77 1004.5
20260830154441 55 338 0.0 7.0 0.00 0.01 0.00 77 1004.5
20260830154321 55 9 0.0 2.0 0.00 0.01 0.00 76 1004.6
20260830153821 56 290 0.0 3.0 0.00 0.01 0.00 75 1004.6
20260830152921 56 330 0.0 3.0 0.00 0.01 0.00 75 1004.8
20260830152420 56 271 0.0 4.0 0.00 0.01 0.00 76 1004.9
20260830151928 56 267 0.0 4.0 0.00 0.01 0.00 76 1004.7
20260830151422 56 290 0.0 5.0 0.00 0.01 0.00 76 1004.8
20260830151329 56 262 1.0 5.0 0.00 0.01 0.00 75 1005.0
20260830150407 56 298 1.0 6.0 0.00 0.01 0.00 76 1005.0
20260830145909 56 310 1.0 6.0 0.00 0.01 0.00 76 1005.1
20260830145405 56 318 0.0 5.0 0.00 0.01 0.00 76 1005.0
20260830145306 56 289 1.0 5.0 0.00 0.01 0.00 75 1005.0
20260830144405 56 250 1.0 6.0 0.00 0.01 0.00 76 1005.0
20260830143905 56 283 1.0 6.0 0.00 0.01 0.00 76 1005.0
20260830143839 56 1 1.0 9.0 0.00 0.01 0.00 76 1004.9
20260830142903 56 278 1.0 9.0 0.00 0.01 0.00 77 1004.9
20260830142409 56 260 1.0 7.0 0.00 0.01 0.00 77 1004.8
20260830141914 56 317 0.0 5.0 0.00 0.01 0.00 77 1004.8
20260830141414 56 314 0.0 5.0 0.00 0.01 0.00 77 1004.9
20260830140915 56 298 0.0 5.0 0.00 0.01 0.00 77 1004.7
20260830140413 56 312 1.0 5.0 0.00 0.01 0.00 77 1004.6
20260830140313 56 265 1.0 5.0 0.00 0.01 0.00 77 1004.6
20260830135411 56 343 1.0 5.0 0.00 0.01 0.00 77 1004.5
20260830134905 56 317 1.0 6.0 0.00 0.01 0.00 77 1004.5
20260830134359 56 334 1.0 6.0 0.00 0.01 0.00 77 1004.5
20260830134302 56 312 1.0 8.0 0.00 0.01 0.00 77 1004.3
20260830133334 56 315 1.0 10.0 0.00 0.01 0.00 77 1004.2
20260830133232 56 334 2.0 10.0 0.00 0.01 0.00 77 1004.2
20260830132337 56 244 2.0 15.0 0.00 0.01 0.00 77 1004.1
20260830131839 56 337 2.0 15.0 0.00 0.01 0.00 77 1004.0
20260830131323 56 334 2.0 10.0 0.00 0.01 0.00 77 1004.1
20260830130821 56 318 2.0 13.0 0.00 0.01 0.00 78 1003.9
20260830130321 55 285 1.0 13.0 0.00 0.01 0.00 79 1004.2
20260830125834 55 265 1.0 7.0 0.00 0.01 0.00 80 1003.9
20260830125333 55 310 1.0 7.0 0.00 0.01 0.00 79 1004.0
20260830124835 55 247 1.0 4.0 0.00 0.01 0.00 79 1003.8
20260830124321 55 317 1.0 8.0 0.00 0.01 0.00 79 1003.7
20260830123819 55 2 1.0 8.0 0.00 0.01 0.00 79 1003.8
20260830123751 55 286 1.0 8.0 0.00 0.01 0.00 80 1003.9
20260830122823 55 326 0.0 2.0 0.00 0.01 0.00 80 1003.7
20260830122332 55 358 0.0 2.0 0.00 0.01 0.00 80 1003.8
20260830121833 55 303 0.0 4.0 0.00 0.01 0.00 79 1003.8
20260830121314 56 0 1.0 6.0 0.00 0.01 0.00 79 1003.7
20260830121231 56 239 1.0 6.0 0.00 0.01 0.00 79 1003.6
20260830120331 56 305 1.0 7.0 0.00 0.02 0.00 79 1003.4
20260830115812 56 359 1.0 7.0 0.00 0.02 0.02 78 1003.2
20260830115322 56 334 1.0 5.0 0.00 0.02 0.02 78 1003.2
20260830114809 56 209 1.0 8.0 0.00 0.02 0.02 77 1003.0
20260830114311 56 289 2.0 11.0 0.00 0.03 0.02 77 1002.9
20260830114213 56 304 2.0 12.0 0.00 0.04 0.02 76 1003.0
20260830113304 56 289 2.0 12.0 0.00 0.04 0.02 76 1002.9
20260830113219 56 259 2.0 10.0 0.00 0.04 0.02 76 1002.9
20260830112306 56 241 1.0 7.0 0.00 0.04 0.02 76 1002.9
20260830111805 56 252 2.0 9.0 0.00 0.04 0.02 76 1003.0
20260830111743 56 337 2.0 9.0 0.00 0.05 0.02 75 1003.2
20260830110823 56 337 2.0 9.0 0.00 0.05 0.02 76 1003.2
20260830110319 56 297 2.0 6.0 0.00 0.06 0.02 77 1003.3
20260830105817 56 8 1.0 5.0 0.00 0.06 0.02 77 1003.5
20260830105324 57 261 1.0 9.0 0.00 0.06 0.02 77 1003.5
20260830104816 57 1 2.0 9.0 0.00 0.06 0.02 77 1003.3
20260830104318 57 331 2.0 10.0 0.00 0.06 0.02 77 1003.4
20260830103813 57 24 2.0 10.0 0.00 0.08 0.02 77 1003.5